| time (UTC) | temp F | wind direction | speed MPH | gust MPH | rain 1hr in | rain 24hr in | rain mn in | humidity % | barometer mb |
| 20260506104616 | 56 | 5 | 6.0 | 15.0 | 0.00 | 0.00 | 0.00 | 64 | 1012.7 |
| 20260506103057 | 56 | 313 | 8.0 | 15.0 | 0.00 | 0.00 | 0.00 | 65 | 1012.8 |
| 20260506101603 | 55 | 328 | 7.0 | 17.0 | 0.00 | 0.00 | 0.00 | 68 | 1012.6 |
| 20260506100055 | 54 | 10 | 7.0 | 16.0 | 0.00 | 0.00 | 0.00 | 68 | 1012.7 |
| 20260506094559 | 54 | 30 | 7.0 | 17.0 | 0.00 | 0.00 | 0.00 | 69 | 1012.8 |
| 20260506093104 | 52 | 347 | 8.0 | 15.0 | 0.00 | 0.00 | 0.00 | 72 | 1012.7 |
| 20260506091554 | 52 | 315 | 7.0 | 17.0 | 0.00 | 0.00 | 0.00 | 72 | 1012.8 |
| 20260506084557 | 54 | 322 | 5.0 | 13.0 | 0.00 | 0.00 | 0.00 | 72 | 1012.5 |
| 20260506083056 | 53 | 313 | 6.0 | 16.0 | 0.00 | 0.00 | 0.00 | 72 | 1012.4 |
| 20260506081556 | 52 | 355 | 4.0 | 13.0 | 0.00 | 0.00 | 0.00 | 74 | 1012.3 |
| 20260506073104 | 49 | 10 | 4.0 | 13.0 | 0.00 | 0.00 | 0.00 | 79 | 1012.4 |
| 20260506071610 | 48 | 244 | 5.0 | 13.0 | 0.00 | 0.00 | 0.00 | 80 | 1012.3 |
| 20260506070103 | 48 | 355 | 4.0 | 10.0 | 0.00 | 0.00 | 0.00 | 82 | 1012.2 |
| 20260506061557 | 45 | 360 | 3.0 | 12.0 | 0.00 | 0.00 | 0.00 | 85 | 1012.3 |
| 20260506044602 | 45 | 308 | 6.0 | 14.0 | 0.00 | 0.00 | 0.00 | 86 | 1011.9 |
| 20260506043057 | 45 | 339 | 4.0 | 13.0 | 0.00 | 0.00 | 0.00 | 86 | 1011.8 |
| 20260506041607 | 46 | 19 | 5.0 | 12.0 | 0.00 | 0.00 | 0.00 | 86 | 1011.7 |
| 20260506040057 | 46 | 5 | 5.0 | 15.0 | 0.00 | 0.00 | 0.00 | 86 | 1011.5 |
| 20260506034556 | 46 | 13 | 5.0 | 14.0 | 0.00 | 0.00 | 0.00 | 85 | 1011.6 |
| 20260506033100 | 46 | 349 | 6.0 | 14.0 | 0.00 | 0.00 | 0.00 | 85 | 1011.7 |
| 20260506031606 | 47 | 360 | 7.0 | 16.0 | 0.00 | 0.00 | 0.00 | 85 | 1011.8 |
| 20260506030056 | 47 | 5 | 5.0 | 13.0 | 0.00 | 0.00 | 0.00 | 84 | 1011.8 |
| 20260506024559 | 47 | 348 | 6.0 | 12.0 | 0.00 | 0.00 | 0.00 | 84 | 1011.8 |
| 20260506023057 | 48 | 360 | 6.0 | 14.0 | 0.00 | 0.00 | 0.00 | 83 | 1011.8 |
| 20260506021558 | 48 | 315 | 6.0 | 15.0 | 0.00 | 0.00 | 0.00 | 83 | 1011.9 |
| 20260506020057 | 48 | 18 | 5.0 | 14.0 | 0.00 | 0.00 | 0.00 | 83 | 1012.0 |
| 20260506014600 | 48 | 360 | 6.0 | 12.0 | 0.00 | 0.00 | 0.00 | 83 | 1012.0 |
| 20260506013057 | 48 | 11 | 7.0 | 15.0 | 0.00 | 0.00 | 0.00 | 83 | 1011.9 |
| 20260506011605 | 49 | 360 | 8.0 | 16.0 | 0.00 | 0.00 | 0.00 | 83 | 1012.1 |
| 20260506010110 | 49 | 33 | 6.0 | 14.0 | 0.00 | 0.00 | 0.00 | 84 | 1012.1 |
| 20260506004607 | 49 | 50 | 6.0 | 15.0 | 0.00 | 0.00 | 0.00 | 84 | 1012.3 |
| 20260506003059 | 49 | 34 | 7.0 | 17.0 | 0.00 | 0.00 | 0.00 | 83 | 1012.3 |
| 20260506001620 | 49 | 355 | 9.0 | 17.0 | 0.00 | 0.00 | 0.00 | 83 | 1012.3 |
| 20260506000110 | 49 | 355 | 7.0 | 18.0 | 0.00 | 0.00 | 0.00 | 83 | 1012.4 |
| 20260505234601 | 49 | 333 | 6.0 | 15.0 | 0.00 | 0.00 | 0.00 | 83 | 1012.5 |
| 20260505233059 | 49 | 78 | 6.0 | 13.0 | 0.00 | 0.00 | 0.00 | 82 | 1012.5 |
| 20260505231556 | 49 | 27 | 8.0 | 16.0 | 0.00 | 0.00 | 0.00 | 82 | 1012.6 |
| 20260505230117 | 49 | 70 | 7.0 | 15.0 | 0.00 | 0.00 | 0.00 | 81 | 1012.6 |
| 20260505224557 | 49 | 24 | 6.0 | 13.0 | 0.00 | 0.00 | 0.00 | 81 | 1012.4 |
| 20260505223100 | 49 | 43 | 6.0 | 13.0 | 0.00 | 0.00 | 0.00 | 81 | 1012.5 |
| 20260505221559 | 50 | 355 | 5.0 | 11.0 | 0.00 | 0.00 | 0.00 | 80 | 1012.7 |
| 20260505220056 | 50 | 5 | 6.0 | 13.0 | 0.00 | 0.00 | 0.00 | 80 | 1012.8 |
| 20260505214606 | 50 | 27 | 5.0 | 12.0 | 0.00 | 0.00 | 0.00 | 79 | 1012.8 |
| 20260505213100 | 50 | 12 | 4.0 | 11.0 | 0.00 | 0.00 | 0.00 | 79 | 1012.8 |
| 20260505211607 | 50 | 37 | 5.0 | 11.0 | 0.00 | 0.00 | 0.00 | 78 | 1012.8 |
| 20260505210106 | 50 | 40 | 4.0 | 9.0 | 0.00 | 0.00 | 0.00 | 77 | 1012.9 |
| 20260505204554 | 50 | 22 | 3.0 | 9.0 | 0.00 | 0.00 | 0.00 | 76 | 1012.9 |
| 20260505203054 | 50 | 57 | 4.0 | 12.0 | 0.00 | 0.00 | 0.00 | 75 | 1012.8 |
| 20260505201605 | 50 | 13 | 4.0 | 9.0 | 0.00 | 0.00 | 0.00 | 75 | 1012.6 |
| 20260505200058 | 51 | 355 | 2.0 | 8.0 | 0.00 | 0.00 | 0.00 | 74 | 1012.5 |
| 20260505194603 | 51 | 23 | 2.0 | 7.0 | 0.00 | 0.00 | 0.00 | 73 | 1012.1 |
| 20260505193104 | 52 | 45 | 4.0 | 9.0 | 0.00 | 0.00 | 0.00 | 72 | 1011.9 |
| 20260505191604 | 52 | 351 | 4.0 | 9.0 | 0.00 | 0.00 | 0.00 | 71 | 1012.0 |
| 20260505190119 | 53 | 355 | 3.0 | 9.0 | 0.00 | 0.00 | 0.00 | 71 | 1011.9 |
| 20260505184611 | 54 | 76 | 2.0 | 9.0 | 0.00 | 0.00 | 0.00 | 71 | 1011.8 |
| 20260505183102 | 55 | 17 | 2.0 | 5.0 | 0.00 | 0.00 | 0.00 | 71 | 1011.7 |
| 20260505181603 | 55 | 13 | 2.0 | 8.0 | 0.00 | 0.00 | 0.00 | 69 | 1011.7 |
| 20260505174556 | 56 | 19 | 3.0 | 8.0 | 0.00 | 0.00 | 0.00 | 67 | 1011.8 |
| 20260505173056 | 57 | 39 | 1.0 | 9.0 | 0.00 | 0.00 | 0.00 | 65 | 1011.7 |
| 20260505171558 | 58 | 32 | 4.0 | 10.0 | 0.00 | 0.00 | 0.00 | 62 | 1011.7 |
| 20260505170109 | 59 | 55 | 6.0 | 12.0 | 0.00 | 0.00 | 0.00 | 60 | 1011.7 |
| 20260505164555 | 60 | 30 | 6.0 | 13.0 | 0.00 | 0.00 | 0.00 | 59 | 1011.8 |
| 20260505163059 | 61 | 5 | 6.0 | 13.0 | 0.00 | 0.00 | 0.00 | 57 | 1011.9 |
| 20260505161555 | 61 | 19 | 8.0 | 19.0 | 0.00 | 0.00 | 0.00 | 57 | 1011.9 |
| 20260505153107 | 64 | 348 | 5.0 | 16.0 | 0.00 | 0.00 | 0.00 | 57 | 1011.8 |
| 20260505151557 | 63 | 360 | 6.0 | 14.0 | 0.00 | 0.00 | 0.00 | 57 | 1011.9 |
| 20260505150114 | 63 | 76 | 7.0 | 16.0 | 0.00 | 0.00 | 0.00 | 59 | 1012.0 |
| 20260505140117 | 61 | 360 | 7.0 | 13.0 | 0.00 | 0.00 | 0.00 | 61 | 1012.1 |
| 20260505130110 | 62 | 360 | 4.0 | 13.0 | 0.00 | 0.00 | 0.00 | 65 | 1012.4 |
| 20260505124617 | 62 | 38 | 5.0 | 12.0 | 0.00 | 0.00 | 0.00 | 65 | 1012.4 |
| 20260505123118 | 62 | 355 | 3.0 | 11.0 | 0.00 | 0.00 | 0.00 | 67 | 1012.4 |
| 20260505121556 | 61 | 35 | 6.0 | 13.0 | 0.00 | 0.00 | 0.00 | 65 | 1012.4 |
| 20260505120059 | 61 | 5 | 7.0 | 15.0 | 0.00 | 0.00 | 0.00 | 66 | 1012.5 |
| 20260505114602 | 59 | 32 | 6.0 | 15.0 | 0.00 | 0.00 | 0.00 | 70 | 1012.5 |
| 20260505113058 | 59 | 15 | 5.0 | 13.0 | 0.00 | 0.00 | 0.00 | 71 | 1012.5 |
| 20260505111603 | 58 | 43 | 3.0 | 13.0 | 0.00 | 0.00 | 0.00 | 71 | 1012.6 |